QPF
0.00 0.00 0.00 0.00 0.00 0.01 0.01 0.02 0.02 0.02 0.01 0.01 0.02 0.04 0.06 0.08 0.13 0.15 0.17 0.17 0.14 0.13 0.11 0.11 0.11 0.10 0.09 0.07 0.06 0.05 0.05 0.05 0.04 0.04 0.03 0.02 0.01 0.01
0.00 0.00 0.00 0.00 0.00 0.00 0.00 0.01 0.02 0.02 0.02 0.01 0.01 0.03 0.05 0.07 0.10 0.13 0.15 0.17 0.15 0.12 0.11 0.10 0.11 0.10 0.09 0.07 0.06 0.05 0.04 0.04 0.04 0.03 0.03 0.02 0.02 0.01
0.00 0.00 0.00 0.00 0.00 0.00 0.01 0.01 0.02 0.02 0.02 0.02 0.01 0.01 0.02 0.04 0.06 0.10 0.13 0.13 0.14 0.12 0.09 0.07 0.09 0.10 0.10 0.08 0.06 0.05 0.04 0.03 0.03 0.02 0.03 0.02 0.01 0.01
0.00 0.00 0.00 0.00 0.00 0.01 0.01 0.01 0.01 0.01 0.01 0.01 0.01 0.01 0.01 0.02 0.03 0.06 0.09 0.09 0.11 0.11 0.09 0.07 0.06 0.07 0.09 0.08 0.08 0.07 0.04 0.03 0.02 0.02 0.02 0.02 0.01 0.01
0.00 0.00 0.00 0.00 0.00 0.00 0.01 0.01 0.01 0.01 0.01 0.01 0.01 0.01 0.01 0.02 0.03 0.05 0.06 0.07 0.10 0.12 0.12 0.10 0.08 0.06 0.06 0.06 0.06 0.06 0.06 0.04 0.03 0.03 0.02 0.02 0.01 0.01
0.00 0.00 0.00 0.00 0.00 0.00 0.01 0.02 0.02 0.01 0.01 0.01 0.01 0.01 0.01 0.02 0.03 0.04 0.05 0.07 0.09 0.10 0.10 0.11 0.10 0.08 0.06 0.05 0.05 0.05 0.05 0.05 0.04 0.03 0.03 0.02 0.01 0.01
0.00 0.00 0.00 0.00 0.00 0.01 0.01 0.02 0.02 0.02 0.02 0.02 0.01 0.01 0.01 0.02 0.02 0.05 0.06 0.09 0.12 0.12 0.11 0.09 0.10 0.08 0.06 0.05 0.05 0.04 0.04 0.04 0.04 0.04 0.03 0.02 0.02 0.01
0.00 0.00 0.00 0.00 0.00 0.01 0.01 0.01 0.01 0.02 0.02 0.03 0.02 0.02 0.01 0.02 0.02 0.04 0.08 0.09 0.11 0.15 0.16 0.12 0.09 0.09 0.07 0.04 0.04 0.03 0.03 0.03 0.04 0.04 0.03 0.03 0.02 0.02
0.00 0.00 0.00 0.00 0.01 0.01 0.01 0.01 0.02 0.03 0.03 0.02 0.02 0.01 0.01 0.02 0.04 0.04 0.05 0.07 0.08 0.11 0.16 0.18 0.14 0.10 0.08 0.06 0.06 0.05 0.05 0.04 0.04 0.04 0.04 0.03 0.03 0.03
0.00 0.00 0.01 0.01 0.01 0.01 0.02 0.02 0.02 0.03 0.04 0.03 0.02 0.02 0.02 0.03 0.04 0.05 0.07 0.07 0.08 0.11 0.12 0.15 0.15 0.14 0.11 0.08 0.07 0.07 0.07 0.06 0.06 0.06 0.05 0.04 0.04 0.03
0.00 0.00 0.01 0.01 0.00 0.01 0.01 0.02 0.02 0.04 0.04 0.04 0.03 0.03 0.03 0.03 0.04 0.05 0.08 0.09 0.08 0.10 0.11 0.12 0.14 0.15 0.15 0.13 0.09 0.08 0.07 0.06 0.06 0.06 0.05 0.05 0.05 0.05
0.01 0.01 0.01 0.00 0.00 0.00 0.01 0.01 0.02 0.03 0.03 0.03 0.02 0.02 0.02 0.02 0.04 0.06 0.08 0.09 0.08 0.08 0.11 0.13 0.13 0.16 0.18 0.16 0.13 0.09 0.07 0.06 0.06 0.07 0.07 0.06 0.07 0.06
0.01 0.01 0.01 0.00 0.00 0.00 0.00 0.01 0.01 0.02 0.03 0.05 0.05 0.05 0.04 0.03 0.04 0.05 0.08 0.12 0.10 0.08 0.08 0.12 0.15 0.14 0.16 0.16 0.14 0.13 0.09 0.07 0.06 0.05 0.06 0.06 0.05 0.04
0.00 0.01 0.00 0.00 0.00 0.00 0.00 0.00 0.01 0.01 0.02 0.04 0.06 0.07 0.07 0.05 0.04 0.05 0.07 0.09 0.12 0.11 0.11 0.12 0.14 0.14 0.13 0.15 0.15 0.14 0.11 0.08 0.06 0.05 0.05 0.05 0.05 0.04
0.00 0.00 0.00 0.00 0.00 0.00 0.00 0.01 0.02 0.02 0.02 0.03 0.04 0.05 0.06 0.05 0.04 0.04 0.06 0.07 0.09 0.12 0.12 0.11 0.12 0.14 0.15 0.14 0.13 0.13 0.12 0.10 0.08 0.06 0.05 0.04 0.03 0.03
0.00 0.00 0.00 0.00 0.00 0.00 0.01 0.01 0.02 0.03 0.03 0.03 0.03 0.03 0.04 0.05 0.06 0.05 0.05 0.06 0.08 0.09 0.10 0.09 0.09 0.11 0.12 0.14 0.14 0.11 0.09 0.10 0.10 0.09 0.08 0.06 0.05 0.04
0.00 0.00 0.00 0.01 0.01 0.01 0.01 0.01 0.02 0.05 0.06 0.04 0.03 0.03 0.04 0.05 0.04 0.05 0.06 0.06 0.07 0.10 0.10 0.10 0.10 0.10 0.12 0.13 0.14 0.13 0.09 0.08 0.10 0.12 0.11 0.09 0.07 0.05
0.00 0.00 0.00 0.01 0.01 0.01 0.01 0.02 0.02 0.03 0.05 0.06 0.05 0.05 0.04 0.05 0.05 0.05 0.07 0.06 0.06 0.09 0.11 0.11 0.11 0.12 0.13 0.15 0.14 0.13 0.11 0.08 0.08 0.09 0.10 0.11 0.09 0.07
0.00 0.00 0.01 0.01 0.01 0.02 0.02 0.02 0.02 0.03 0.03 0.05 0.05 0.04 0.05 0.06 0.06 0.06 0.06 0.06 0.05 0.06 0.09 0.13 0.12 0.11 0.11 0.12 0.13 0.12 0.13 0.11 0.09 0.09 0.07 0.07 0.08 0.07
0.00 0.01 0.01 0.01 0.01 0.02 0.02 0.01 0.02 0.03 0.03 0.04 0.04 0.04 0.04 0.06 0.07 0.07 0.06 0.05 0.05 0.05 0.07 0.09 0.11 0.11 0.10 0.10 0.10 0.10 0.10 0.13 0.12 0.11 0.09 0.08 0.08 0.09
0.01 0.02 0.02 0.01 0.02 0.01 0.01 0.02 0.02 0.03 0.03 0.04 0.04 0.04 0.05 0.05 0.06 0.09 0.07 0.06 0.05 0.04 0.05 0.07 0.07 0.10 0.11 0.11 0.10 0.10 0.09 0.11 0.15 0.13 0.12 0.11 0.09 0.08
0.01 0.01 0.01 0.01 0.01 0.01 0.01 0.01 0.02 0.03 0.03 0.03 0.03 0.03 0.04 0.04 0.04 0.07 0.06 0.05 0.05 0.04 0.05 0.07 0.07 0.07 0.07 0.08 0.10 0.10 0.09 0.10 0.14 0.15 0.13 0.11 0.08 0.06
0.01 0.01 0.01 0.01 0.01 0.01 0.01 0.01 0.01 0.02 0.03 0.02 0.02 0.01 0.02 0.03 0.03 0.04 0.05 0.05 0.06 0.05 0.05 0.06 0.07 0.06 0.05 0.06 0.08 0.10 0.09 0.09 0.09 0.10 0.10 0.09 0.07 0.06
MSLP
1017.12 1017.20 1017.29 1017.38 1017.43 1017.42 1017.35 1017.21 1017.00 1016.73 1016.40 1016.04 1015.66 1015.27 1014.87 1014.50 1014.16 1013.86 1013.64 1013.49 1013.45 1013.52 1013.68 1013.94 1014.28 1014.68 1015.12 1015.59 1016.07 1016.56 1017.05 1017.55 1018.05 1018.57 1019.08 1019.58 1020.07 1020.53
1016.74 1016.74 1016.76 1016.78 1016.79 1016.78 1016.73 1016.65 1016.52 1016.34 1016.12 1015.85 1015.55 1015.21 1014.85 1014.47 1014.11 1013.77 1013.48 1013.27 1013.16 1013.15 1013.25 1013.45 1013.73 1014.08 1014.48 1014.91 1015.35 1015.82 1016.29 1016.78 1017.27 1017.78 1018.30 1018.81 1019.31 1019.78
1016.36 1016.28 1016.22 1016.16 1016.11 1016.07 1016.02 1015.96 1015.88 1015.78 1015.65 1015.48 1015.26 1014.99 1014.69 1014.35 1014.00 1013.66 1013.35 1013.11 1012.95 1012.89 1012.93 1013.06 1013.28 1013.56 1013.89 1014.27 1014.67 1015.09 1015.53 1016.00 1016.48 1016.99 1017.50 1018.02 1018.53 1019.03
1015.99 1015.85 1015.71 1015.58 1015.46 1015.37 1015.29 1015.23 1015.17 1015.12 1015.04 1014.94 1014.80 1014.61 1014.37 1014.10 1013.80 1013.49 1013.20 1012.96 1012.78 1012.68 1012.66 1012.73 1012.87 1013.07 1013.32 1013.61 1013.95 1014.31 1014.71 1015.15 1015.62 1016.12 1016.64 1017.18 1017.71 1018.22
1015.65 1015.46 1015.26 1015.07 1014.90 1014.75 1014.63 1014.54 1014.47 1014.41 1014.36 1014.30 1014.21 1014.08 1013.92 1013.72 1013.48 1013.24 1013.00 1012.78 1012.60 1012.47 1012.41 1012.40 1012.45 1012.55 1012.69 1012.89 1013.13 1013.43 1013.77 1014.17 1014.63 1015.13 1015.67 1016.23 1016.79 1017.34
1015.33 1015.12 1014.89 1014.67 1014.45 1014.25 1014.07 1013.92 1013.80 1013.71 1013.64 1013.58 1013.52 1013.44 1013.34 1013.21 1013.06 1012.90 1012.72 1012.54 1012.38 1012.23 1012.12 1012.03 1011.98 1011.96 1011.98 1012.06 1012.20 1012.40 1012.68 1013.05 1013.49 1014.00 1014.56 1015.16 1015.76 1016.36
1015.02 1014.81 1014.58 1014.34 1014.09 1013.84 1013.61 1013.39 1013.21 1013.06 1012.94 1012.85 1012.78 1012.73 1012.68 1012.62 1012.56 1012.47 1012.37 1012.25 1012.10 1011.95 1011.78 1011.60 1011.44 1011.29 1011.18 1011.12 1011.14 1011.25 1011.47 1011.79 1012.22 1012.74 1013.34 1013.98 1014.64 1015.29
1014.69 1014.51 1014.30 1014.06 1013.79 1013.51 1013.21 1012.93 1012.66 1012.43 1012.25 1012.12 1012.03 1011.99 1011.98 1011.99 1012.00 1012.00 1011.97 1011.90 1011.78 1011.61 1011.39 1011.13 1010.85 1010.56 1010.31 1010.12 1010.01 1010.03 1010.18 1010.46 1010.89 1011.42 1012.05 1012.75 1013.46 1014.17
1014.34 1014.19 1014.00 1013.77 1013.50 1013.19 1012.85 1012.49 1012.15 1011.85 1011.59 1011.40 1011.29 1011.25 1011.27 1011.34 1011.42 1011.50 1011.54 1011.52 1011.43 1011.24 1010.97 1010.63 1010.24 1009.82 1009.44 1009.11 1008.90 1008.83 1008.91 1009.17 1009.58 1010.14 1010.81 1011.54 1012.32 1013.08
1013.96 1013.84 1013.67 1013.46 1013.18 1012.85 1012.46 1012.06 1011.65 1011.28 1010.96 1010.73 1010.59 1010.55 1010.60 1010.71 1010.85 1011.00 1011.10 1011.13 1011.05 1010.86 1010.55 1010.13 1009.65 1009.13 1008.62 1008.19 1007.89 1007.74 1007.77 1008.00 1008.42 1008.99 1009.69 1010.46 1011.28 1012.09
1013.58 1013.47 1013.31 1013.10 1012.82 1012.46 1012.05 1011.60 1011.15 1010.72 1010.36 1010.09 1009.94 1009.90 1009.97 1010.12 1010.32 1010.51 1010.66 1010.72 1010.66 1010.46 1010.12 1009.65 1009.10 1008.50 1007.92 1007.41 1007.04 1006.84 1006.84 1007.05 1007.46 1008.04 1008.76 1009.56 1010.40 1011.24
1013.22 1013.10 1012.94 1012.72 1012.42 1012.05 1011.61 1011.13 1010.64 1010.19 1009.80 1009.51 1009.35 1009.32 1009.40 1009.58 1009.80 1010.03 1010.21 1010.29 1010.24 1010.03 1009.68 1009.18 1008.59 1007.95 1007.33 1006.79 1006.38 1006.15 1006.13 1006.33 1006.74 1007.32 1008.03 1008.84 1009.69 1010.53
1012.91 1012.77 1012.59 1012.35 1012.03 1011.64 1011.18 1010.68 1010.17 1009.70 1009.30 1009.00 1008.83 1008.80 1008.88 1009.06 1009.30 1009.53 1009.72 1009.80 1009.76 1009.55 1009.20 1008.70 1008.11 1007.47 1006.84 1006.30 1005.89 1005.66 1005.63 1005.83 1006.22 1006.78 1007.48 1008.27 1009.10 1009.93
1012.67 1012.50 1012.29 1012.02 1011.68 1011.26 1010.78 1010.27 1009.76 1009.28 1008.88 1008.57 1008.40 1008.35 1008.42 1008.58 1008.79 1009.00 1009.17 1009.24 1009.19 1008.99 1008.64 1008.17 1007.61 1007.00 1006.41 1005.90 1005.52 1005.30 1005.28 1005.46 1005.83 1006.37 1007.03 1007.78 1008.57 1009.36
1012.50 1012.30 1012.06 1011.76 1011.39 1010.95 1010.46 1009.94 1009.43 1008.95 1008.55 1008.23 1008.04 1007.96 1007.99 1008.10 1008.27 1008.43 1008.55 1008.60 1008.53 1008.33 1008.01 1007.57 1007.07 1006.52 1006.00 1005.54 1005.21 1005.02 1005.01 1005.18 1005.52 1006.00 1006.61 1007.29 1008.03 1008.77
1012.36 1012.14 1011.88 1011.55 1011.16 1010.71 1010.21 1009.70 1009.19 1008.72 1008.30 1007.98 1007.76 1007.64 1007.61 1007.65 1007.73 1007.82 1007.88 1007.87 1007.78 1007.58 1007.29 1006.91 1006.48 1006.02 1005.58 1005.20 1004.92 1004.77 1004.76 1004.91 1005.20 1005.63 1006.16 1006.77 1007.43 1008.12
1012.21 1011.98 1011.70 1011.36 1010.96 1010.51 1010.02 1009.51 1009.02 1008.55 1008.14 1007.80 1007.54 1007.37 1007.26 1007.21 1007.20 1007.20 1007.17 1007.11 1006.98 1006.79 1006.53 1006.22 1005.86 1005.50 1005.16 1004.86 1004.65 1004.53 1004.53 1004.65 1004.89 1005.24 1005.68 1006.21 1006.79 1007.43
1011.98 1011.75 1011.47 1011.13 1010.73 1010.29 1009.82 1009.34 1008.87 1008.43 1008.03 1007.67 1007.38 1007.15 1006.96 1006.82 1006.70 1006.60 1006.49 1006.36 1006.20 1006.01 1005.79 1005.54 1005.28 1005.02 1004.77 1004.57 1004.42 1004.34 1004.33 1004.42 1004.60 1004.87 1005.23 1005.67 1006.18 1006.75
1011.60 1011.38 1011.11 1010.78 1010.41 1010.00 1009.57 1009.14 1008.71 1008.31 1007.92 1007.57 1007.26 1006.97 1006.72 1006.49 1006.27 1006.07 1005.88 1005.69 1005.50 1005.32 1005.14 1004.96 1004.79 1004.62 1004.48 1004.36 1004.27 1004.23 1004.23 1004.28 1004.41 1004.60 1004.87 1005.23 1005.67 1006.18
1011.04 1010.84 1010.59 1010.30 1009.96 1009.61 1009.24 1008.87 1008.51 1008.15 1007.81 1007.48 1007.16 1006.84 1006.53 1006.22 1005.93 1005.64 1005.38 1005.14 1004.94 1004.76 1004.62 1004.51 1004.43 1004.36 1004.32 1004.28 1004.26 1004.25 1004.25 1004.29 1004.37 1004.50 1004.70 1004.98 1005.36 1005.83
1010.31 1010.13 1009.91 1009.66 1009.38 1009.09 1008.81 1008.52 1008.24 1007.96 1007.68 1007.38 1007.07 1006.74 1006.39 1006.04 1005.68 1005.33 1005.02 1004.74 1004.53 1004.37 1004.27 1004.22 1004.22 1004.25 1004.30 1004.34 1004.39 1004.42 1004.44 1004.47 1004.52 1004.61 1004.75 1004.98 1005.31 1005.74
1009.44 1009.29 1009.11 1008.91 1008.70 1008.50 1008.30 1008.12 1007.93 1007.74 1007.52 1007.28 1007.00 1006.68 1006.31 1005.92 1005.52 1005.13 1004.78 1004.48 1004.26 1004.12 1004.06 1004.08 1004.15 1004.27 1004.40 1004.53 1004.64 1004.72 1004.77 1004.81 1004.85 1004.92 1005.03 1005.23 1005.52 1005.92
1008.52 1008.40 1008.26 1008.13 1008.00 1007.89 1007.79 1007.71 1007.62 1007.52 1007.38 1007.19 1006.95 1006.64 1006.27 1005.86 1005.44 1005.02 1004.64 1004.33 1004.10 1003.98 1003.96 1004.03 1004.17 1004.36 1004.57 1004.77 1004.95 1005.09 1005.19 1005.25 1005.30 1005.37 1005.47 1005.65 1005.92 1006.30
Thickness
5641 5641 5640 5641 5642 5642 5643 5643 5642 5642 5647 5656 5663 5671 5676 5680 5685 5688 5692 5697 5700 5703 5706 5709 5710 5711 5712 5713 5713 5714 5714 5715 5715 5715 5715 5715 5715 5716
5633 5633 5633 5633 5634 5634 5635 5635 5636 5637 5638 5646 5652 5659 5665 5671 5676 5680 5684 5688 5693 5697 5700 5703 5705 5708 5709 5711 5712 5712 5713 5714 5714 5714 5714 5715 5715 5715
5626 5625 5625 5625 5625 5625 5626 5626 5627 5629 5631 5637 5642 5649 5654 5660 5666 5671 5676 5681 5686 5690 5694 5698 5701 5703 5706 5708 5710 5710 5711 5712 5712 5713 5713 5713 5714 5714
5618 5617 5616 5617 5616 5616 5616 5617 5618 5620 5622 5626 5631 5636 5643 5649 5655 5661 5667 5673 5678 5684 5689 5693 5696 5699 5702 5705 5707 5708 5709 5710 5710 5711 5712 5712 5713 5713
5610 5609 5608 5607 5607 5607 5607 5608 5609 5612 5614 5616 5621 5625 5631 5638 5644 5651 5658 5664 5671 5677 5682 5687 5691 5695 5698 5701 5703 5705 5707 5708 5708 5709 5710 5711 5711 5712
5603 5601 5600 5599 5599 5598 5599 5599 5600 5601 5603 5607 5610 5614 5620 5626 5632 5638 5645 5654 5661 5669 5675 5680 5684 5689 5693 5697 5700 5702 5704 5705 5706 5707 5708 5709 5709 5710
5596 5594 5594 5594 5593 5592 5592 5591 5591 5591 5593 5596 5600 5604 5609 5614 5620 5628 5634 5642 5651 5659 5665 5672 5677 5682 5687 5691 5695 5698 5700 5702 5703 5705 5706 5707 5707 5708
5589 5588 5587 5587 5587 5587 5586 5586 5585 5584 5585 5587 5590 5594 5600 5605 5611 5617 5623 5630 5639 5649 5654 5661 5668 5674 5681 5686 5692 5695 5697 5698 5700 5701 5702 5704 5705 5706
5583 5581 5581 5582 5581 5579 5578 5579 5579 5581 5582 5582 5585 5589 5593 5598 5603 5608 5614 5621 5630 5639 5644 5652 5660 5667 5674 5680 5685 5689 5692 5694 5696 5698 5699 5700 5702 5702
5579 5577 5574 5574 5574 5572 5571 5570 5571 5573 5575 5578 5581 5585 5588 5592 5596 5602 5606 5613 5622 5629 5636 5642 5651 5658 5665 5672 5677 5682 5685 5689 5692 5694 5695 5697 5698 5698
5576 5573 5571 5569 5568 5567 5564 5563 5564 5565 5569 5572 5576 5579 5583 5587 5591 5594 5598 5603 5611 5620 5628 5634 5642 5648 5655 5662 5669 5674 5678 5682 5686 5688 5690 5691 5692 5692
5572 5569 5567 5565 5564 5562 5559 5557 5557 5559 5561 5565 5568 5572 5576 5581 5585 5589 5593 5597 5604 5611 5621 5626 5633 5638 5644 5653 5659 5665 5669 5673 5677 5680 5683 5685 5685 5685
5568 5565 5563 5562 5560 5557 5554 5553 5553 5554 5555 5557 5560 5564 5569 5574 5579 5584 5589 5594 5599 5606 5614 5619 5624 5630 5636 5642 5649 5655 5661 5665 5668 5671 5674 5677 5678 5679
5565 5563 5560 5558 5555 5553 5551 5550 5549 5549 5549 5550 5553 5558 5563 5568 5574 5580 5585 5591 5596 5602 5608 5613 5617 5623 5628 5633 5639 5645 5651 5655 5660 5663 5665 5668 5670 5672
5564 5561 5558 5555 5552 5550 5549 5547 5546 5544 5545 5546 5550 5554 5560 5565 5569 5574 5580 5585 5590 5596 5602 5607 5612 5618 5622 5628 5633 5637 5642 5647 5651 5654 5657 5660 5663 5665
5561 5558 5556 5553 5551 5549 5547 5546 5545 5544 5543 5545 5548 5552 5556 5560 5564 5569 5573 5578 5583 5590 5596 5602 5607 5611 5616 5622 5627 5631 5636 5640 5644 5647 5649 5652 5655 5658
5557 5554 5552 5550 5548 5547 5546 5545 5544 5544 5543 5545 5546 5549 5553 5556 5560 5564 5568 5573 5578 5583 5589 5595 5600 5605 5611 5616 5620 5625 5629 5633 5637 5640 5642 5644 5648 5652
5554 5551 5549 5548 5546 5545 5544 5544 5544 5544 5545 5546 5546 5548 5550 5554 5557 5561 5564 5568 5573 5578 5583 5588 5592 5597 5602 5609 5615 5620 5623 5627 5630 5633 5636 5638 5641 5644
5552 5550 5549 5547 5546 5545 5545 5544 5544 5545 5545 5546 5547 5548 5549 5552 5554 5558 5561 5564 5569 5573 5578 5582 5586 5591 5596 5602 5608 5614 5617 5620 5623 5625 5629 5633 5636 5638
5554 5552 5550 5549 5547 5546 5545 5545 5544 5544 5545 5545 5546 5547 5548 5549 5552 5555 5558 5561 5565 5569 5573 5577 5582 5587 5592 5597 5600 5605 5610 5615 5617 5619 5620 5623 5626 5629
5557 5554 5553 5550 5549 5547 5546 5545 5544 5544 5544 5544 5544 5546 5546 5547 5549 5552 5555 5558 5562 5565 5569 5574 5579 5583 5586 5589 5592 5596 5600 5606 5611 5613 5614 5614 5617 5620
5560 5557 5555 5552 5550 5548 5546 5545 5544 5543 5543 5543 5543 5544 5545 5546 5548 5550 5553 5555 5558 5562 5566 5569 5573 5576 5579 5583 5587 5589 5592 5595 5599 5603 5606 5610 5613 5615
5561 5559 5556 5553 5551 5548 5546 5545 5543 5542 5542 5542 5542 5542 5543 5545 5546 5548 5551 5553 5556 5558 5561 5564 5567 5570 5573 5577 5580 5582 5584 5586 5589 5591 5593 5599 5605 5610